Showing default

COSMOS 1561, 15000

Orbit data source: Space-Track

COSMOS 1561, 15000 is a payload satellite owned by GUKOS (CIS) in LEO that was launched on Mon, 28 May 1984 UTC via a KOSMOS 11K65M launch vehicle from the Plesetsk Missile And Space Complex (PKMTR). Payload-class satellites include a variety of spacecraft equipped with specific instruments for various scientific and technological missions. These include communications satellites like Starlink; space stations such as the ISS; scientific satellites like the Hubble; Earth observation satellites from companies like Planet Labs, Umbra, and HawkEye 360; GPS; miniature CubeSats for education and research; and military/defense satellites.

Loading next visibility...
Identifier
15000, 1984-052C
Orbit
LEO
Country
Flag of CISCIS
Related business
Manufacturer
NPO PM
Mission
Spacecraft
Bus & Motor
STRELA-1 11F625, Unknown motor
Mass
60 kg wet, 60 kg dry
Launch date (UTC)
1984-05-28 (41 years ago)
Launch vehicle
KOSMOS 11K65M
Launch site
Plesetsk Missile And Space Complex (PKMTR)
Object type
Payload
Rocket body
Debris
Shape & HBR
Unknown
Radar Cross Section
Medium (>0.1 m² and <1 m²)

Expand to show TLE details & history
Last TLE update: 6 hours ago

TLE from 6 hours ago
0 COSMOS 1561
1 15000U 84052C   25299.84699102 -.00000010  00000-0  40893-4 0  9991
2 15000  74.0139 340.1949 0015865 244.1312 289.3118 12.47986915886628
Epoch: 2025-10-26T20:19Z
TLE epoch observation values (Epoch: 2025-10-26T20:19:40.024Z)
Latitude
6.40248°
Longitude
177.98767°
Altitude
1,470.601 km
Speed
7.13 km/s
True Right ascension
10h 33m 26s
True Declination
6° 22' 05"
Sunlit
Object was in daylight at epoch
Visualization orbit readout
Latitude
Unknown
Longitude
Unknown
Altitude
Unknown
Speed
Unknown
Apparent Right ascension
Unknown
Apparent Declination
Unknown
Sunlit
N/A
Visualization observer readout
Local Sidereal Time
22:01:17
Azimuth
Unknown
Elevation
Unknown
Doppler factor
Unknown
Orbital elements
Apogee altitude
1,483.217 km
Perigee altitude
1,458.313 km
Semi-major axis
7,848.902 km
Eccentricity
0.00159
Inclination
74.0139°
RAAN
340.1949°
Arg. of periapsis
244.1312°
True anomaly
289.14012°
Mean anomaly
289.3118°
Eccentric anomaly
289.22597°
Mean motion
3.12126 °/min
Orbital period
115.34 mins
BSTAR
0.000040893
Loading maneuver chart data...
Computing Atmospheric mass density...
Loading historical data...
Loading historical data...
Loading historical data...
Loading historical data...
Loading historical data...
Loading historical data...
Loading historical data...

Documentation

Showing up to 5 results
|